• In Netherlands
  • List of Countries
  • For 7 days
  • Water Temperature
  • Satellite Maps
  • Weather Map
  • Weather Widgets
  • user-avatar
    Login

    Hourly Weather Albany

    Today, 26 July, Wednesday

    Time Temperature Precipitation Wind Pressure Humidity
    00:00 +13°C° 0.1 mm 8 mps 757 mmHg 77%
    01:00 +13°C° 0.1 mm 8 mps 756 mmHg 78%
    02:00 +13°C° 0 mm 8 mps 756 mmHg 79%
    03:00 +13°C° 0.2 mm 8 mps 755 mmHg 81%
    04:00 +13°C° 0.2 mm 8 mps 755 mmHg 83%
    05:00 +13°C° 0.2 mm 8 mps 755 mmHg 85%
    06:00 +13°C° 0.4 mm 8 mps 755 mmHg 86%
    07:00 +13°C° 0.4 mm 8 mps 755 mmHg 88%
    08:00 +13°C° 0.4 mm 8 mps 755 mmHg 89%
    09:00 +15°C° 0.4 mm 8 mps 755 mmHg 84%
    10:00 +16°C° 0.4 mm 9 mps 755 mmHg 78%
    11:00 +17°C° 0.4 mm 9 mps 755 mmHg 72%
    12:00 +17°C° 0.2 mm 10 mps 756 mmHg 69%
    13:00 +17°C° 0.2 mm 10 mps 756 mmHg 65%
    14:00 +17°C° 0 mm 10 mps 755 mmHg 62%
    15:00 +16°C° 0 mm 9 mps 756 mmHg 61%
    16:00 +15°C° 0 mm 9 mps 756 mmHg 60%
    17:00 +13°C° 0 mm 8 mps 757 mmHg 60%
    18:00 +12°C° 0 mm 8 mps 758 mmHg 62%
    19:00 +12°C° 0 mm 7 mps 758 mmHg 65%
    20:00 +11°C° 0 mm 7 mps 759 mmHg 68%
    21:00 +10°C° 0 mm 6 mps 759 mmHg 71%
    22:00 +10°C° 0 mm 6 mps 759 mmHg 74%
    23:00 +9°C° 0 mm 5 mps 760 mmHg 76%

    Tomorrow, 27 July, Thursday

    Time Temperature Precipitation Wind Pressure Humidity
    00:00 +9°C° 0 mm 5 mps 760 mmHg 79%
    01:00 +8°C° 0 mm 4 mps 760 mmHg 81%
    02:00 +8°C° 0 mm 4 mps 760 mmHg 84%
    03:00 +8°C° 0 mm 4 mps 759 mmHg 85%
    04:00 +7°C° 0 mm 4 mps 759 mmHg 86%
    05:00 +7°C° 0 mm 4 mps 758 mmHg 87%
    06:00 +7°C° 0 mm 4 mps 758 mmHg 84%
    07:00 +7°C° 0 mm 5 mps 758 mmHg 81%
    08:00 +8°C° 0 mm 5 mps 757 mmHg 78%
    09:00 +10°C° 0 mm 6 mps 757 mmHg 73%
    10:00 +12°C° 0 mm 7 mps 756 mmHg 69%
    11:00 +15°C° 0 mm 7 mps 756 mmHg 65%
    12:00 +16°C° 0 mm 8 mps 754 mmHg 64%
    13:00 +17°C° 0 mm 8 mps 753 mmHg 64%
    14:00 +18°C° 0 mm 9 mps 752 mmHg 64%
    15:00 +18°C° 0 mm 9 mps 751 mmHg 65%
    16:00 +18°C° 0 mm 9 mps 750 mmHg 67%
    17:00 +18°C° 0 mm 9 mps 750 mmHg 69%
    18:00 +18°C° 0.1 mm 9 mps 749 mmHg 69%
    19:00 +17°C° 0.1 mm 10 mps 749 mmHg 70%
    20:00 +17°C° 0.1 mm 11 mps 748 mmHg 71%
    21:00 +16°C° 0.6 mm 11 mps 748 mmHg 75%
    22:00 +16°C° 0.6 mm 11 mps 748 mmHg 79%
    23:00 +14°C° 0.6 mm 11 mps 748 mmHg 82%

    Day after tomorrow, 28 July, Friday

    Time Temperature Precipitation Wind Pressure Humidity
    00:00 +13°C° 1.8 mm 10 mps 748 mmHg 84%
    01:00 +12°C° 1.8 mm 10 mps 748 mmHg 87%
    02:00 +11°C° 1.8 mm 9 mps 748 mmHg 89%
    03:00 +11°C° 0.2 mm 9 mps 747 mmHg 86%
    04:00 +11°C° 0.2 mm 9 mps 747 mmHg 84%
    05:00 +11°C° 0.2 mm 9 mps 747 mmHg 82%
    06:00 +11°C° 0.1 mm 10 mps 747 mmHg 80%
    07:00 +11°C° 0.1 mm 10 mps 747 mmHg 78%
    08:00 +11°C° 0.1 mm 11 mps 747 mmHg 76%
    09:00 +12°C° 0.2 mm 11 mps 748 mmHg 71%
    10:00 +12°C° 0.2 mm 12 mps 748 mmHg 66%
    11:00 +13°C° 0.2 mm 13 mps 748 mmHg 61%
    12:00 +13°C° 0.3 mm 13 mps 748 mmHg 61%
    13:00 +13°C° 0.3 mm 13 mps 748 mmHg 60%
    14:00 +12°C° 0.3 mm 13 mps 747 mmHg 60%
    15:00 +12°C° 0.2 mm 12 mps 748 mmHg 60%
    16:00 +10°C° 0.2 mm 12 mps 748 mmHg 60%
    17:00 +9°C° 0.2 mm 11 mps 749 mmHg 60%
    18:00 +9°C° 0.4 mm 11 mps 749 mmHg 64%
    19:00 +8°C° 0.4 mm 11 mps 750 mmHg 68%
    20:00 +7°C° 0.4 mm 11 mps 750 mmHg 72%
    21:00 +7°C° 0.6 mm 11 mps 751 mmHg 74%
    22:00 +7°C° 0.6 mm 11 mps 751 mmHg 76%
    23:00 +7°C° 0.6 mm 11 mps 751 mmHg 78%

    29 July, Saturday

    Time Temperature Precipitation Wind Pressure Humidity
    00:00 +7°C° 0.7 mm 11 mps 752 mmHg 79%
    01:00 +7°C° 0.7 mm 11 mps 752 mmHg 80%
    02:00 +7°C° 0.7 mm 11 mps 752 mmHg 80%
    03:00 +7°C° 0.5 mm 11 mps 752 mmHg 80%
    04:00 +7°C° 0.5 mm 10 mps 752 mmHg 80%
    05:00 +7°C° 0.5 mm 10 mps 753 mmHg 80%
    06:00 +7°C° 0.3 mm 10 mps 753 mmHg 79%
    07:00 +7°C° 0.3 mm 10 mps 754 mmHg 79%
    08:00 +7°C° 0.3 mm 10 mps 754 mmHg 78%
    09:00 +8°C° 0.2 mm 10 mps 755 mmHg 74%
    10:00 +9°C° 0.2 mm 10 mps 755 mmHg 70%
    11:00 +11°C° 0.2 mm 11 mps 755 mmHg 66%
    12:00 +12°C° 0.2 mm 11 mps 755 mmHg 63%
    13:00 +12°C° 0.2 mm 10 mps 754 mmHg 60%
    14:00 +13°C° 0.2 mm 10 mps 754 mmHg 57%
    15:00 +12°C° 0.5 mm 10 mps 754 mmHg 66%
    16:00 +11°C° 0.5 mm 10 mps 754 mmHg 74%
    17:00 +10°C° 0.5 mm 9 mps 754 mmHg 83%
    18:00 +9°C° 0.9 mm 10 mps 754 mmHg 84%
    19:00 +9°C° 0.9 mm 10 mps 755 mmHg 85%
    20:00 +8°C° 0.9 mm 10 mps 755 mmHg 86%
    21:00 +8°C° 0.3 mm 10 mps 755 mmHg 84%
    22:00 +8°C° 0.3 mm 10 mps 755 mmHg 81%
    23:00 +8°C° 0.3 mm 10 mps 755 mmHg 79%

    30 July, Sunday

    Time Temperature Precipitation Wind Pressure Humidity
    00:00 +8°C° 0.4 mm 11 mps 755 mmHg 79%
    01:00 +7°C° 0.4 mm 11 mps 755 mmHg 80%
    02:00 +7°C° 0.4 mm 11 mps 755 mmHg 80%
    03:00 +7°C° 0.9 mm 11 mps 755 mmHg 81%
    04:00 +7°C° 0.9 mm 11 mps 756 mmHg 83%
    05:00 +7°C° 0.9 mm 10 mps 756 mmHg 84%
    06:00 +8°C° 0.3 mm 9 mps 757 mmHg 83%
    07:00 +8°C° 0.3 mm 9 mps 758 mmHg 81%
    08:00 +9°C° 0.3 mm 8 mps 759 mmHg 80%
    09:00 +10°C° 0.1 mm 7 mps 760 mmHg 74%
    10:00 +11°C° 0.1 mm 7 mps 760 mmHg 69%
    11:00 +11°C° 0.1 mm 7 mps 761 mmHg 63%
    12:00 +11°C° 0 mm 6 mps 761 mmHg 62%
    13:00 +13°C° 0 mm 6 mps 760 mmHg 60%
    14:00 +13°C° 0 mm 5 mps 760 mmHg 59%
    15:00 +12°C° 0 mm 4 mps 760 mmHg 61%
    16:00 +12°C° 0 mm 4 mps 761 mmHg 63%
    17:00 +11°C° 0 mm 3 mps 761 mmHg 66%
    18:00 +10°C° 0 mm 3 mps 761 mmHg 69%
    19:00 +9°C° 0 mm 2 mps 762 mmHg 73%
    20:00 +8°C° 0 mm 2 mps 762 mmHg 77%
    21:00 +9°C° 0 mm 2 mps 762 mmHg 76%
    22:00 +9°C° 0 mm 3 mps 761 mmHg 76%
    23:00 +8°C° 0 mm 4 mps 761 mmHg 75%

    31 July, Monday

    Time Temperature Precipitation Wind Pressure Humidity
    00:00 +8°C° 0 mm 4 mps 761 mmHg 78%
    01:00 +8°C° 0 mm 4 mps 760 mmHg 80%
    02:00 +8°C° 0 mm 4 mps 760 mmHg 83%
    03:00 +7°C° 0 mm 5 mps 759 mmHg 83%
    04:00 +7°C° 0 mm 5 mps 759 mmHg 83%
    05:00 +5°C° 0 mm 6 mps 758 mmHg 84%
    06:00 +7°C° 0 mm 6 mps 758 mmHg 82%
    07:00 +6°C° 0 mm 7 mps 758 mmHg 81%
    08:00 +7°C° 0 mm 8 mps 757 mmHg 79%
    09:00 +10°C° 0 mm 8 mps 757 mmHg 74%
    10:00 +11°C° 0 mm 9 mps 756 mmHg 68%
    11:00 +13°C° 0 mm 9 mps 755 mmHg 63%
    12:00 +13°C° 0 mm 9 mps 754 mmHg 63%
    13:00 +13°C° 0 mm 8 mps 753 mmHg 64%
    14:00 +13°C° 0 mm 8 mps 753 mmHg 65%
    15:00 +12°C° 1.4 mm 8 mps 753 mmHg 72%
    16:00 +11°C° 1.4 mm 8 mps 753 mmHg 79%
    17:00 +10°C° 1.4 mm 8 mps 753 mmHg 87%
    18:00 +10°C° 2.3 mm 8 mps 753 mmHg 88%
    19:00 +9°C° 2.3 mm 8 mps 754 mmHg 89%
    20:00 +7°C° 2.3 mm 8 mps 754 mmHg 91%
    21:00 +7°C° 1.1 mm 9 mps 755 mmHg 90%
    22:00 +7°C° 1.1 mm 9 mps 755 mmHg 88%
    23:00 +7°C° 1.1 mm 9 mps 756 mmHg 87%
    Show more